"Pseudo-MPEC" for ZTF0L5G = ZTF0L67 = B04SK17

Created 2021 Jun 5 14:38:18 UT using Find_Orb

Click here for an explanation of pseudo-MPECs

TLEs are available for this object, and for most of the other objects listed on these pages. Note that, because of sparse data and unpredictable non-gravs, the TLEs are probably only good for a few months around the date of observation. I mostly just hope that they'll be good enough so that if the object is found again, it'll be identified and the orbit can be improved.

 
 Astrometry: 
     ScKo07a*2C2021 03 11Kp1'0AstrometryuAIredacted;UvFGV.k]-]dbX\+F2VY`v71FlZ84
     ScKo07a 2C2021 03 110RhYaZcthT2O7PlJ3QJ3cZG#V8iVclick:[@FIS.g3qbU%N_p$Q@Z84
     ScKo07a 2C2021 03 117(D%E$LI4d8jXMd%wgQ8a=.F33w.$YR)XW/'kMs6`G?xr,$Dwe;+Z84
     ScKo07a 2C2021 03 11eNr6wuiZSD5Eqb[Wc6P;.\X2Z/Qu:$3X:d-]D;7h*]:lhererK0.Z84
     ScKo07a 2C2021 03 11Kq^]]sl5n-QLtdA^qX\2pKp-?=%jM4lR_Q6BJ(Wricyc'@for!RxZ84
     ScKo07a 2C2021 03 118eHc5U\R[L%I?X.JnPNPbF@%E],?_^w#f:9BvEWHKA]4k+?[Z@!_Z84
     B04SK17  C2021 04 17?_E_x^WO;CC.?sTvAYV=D.!cN\wH8]gQ\L)t)X6'UDNRQI1-f'RuU55
     B04SK17* C2021 04 17\o#slK1)8@?y:W*]fOexplanation^:[icGv*N(%1w\^DaoMSeGrU55
     B04SK17  C2021 04 17dbOul2aup!W_$6H,r'qJ=Un$$u2CC*-_3(QFC'px80=p?VrGNB]jU55
     ZTF0L5G* C2021 05 15.29458314 53 02.67 +00 00 21.3    ~5FCb 12.85RUNEOCPI41
     ZTF0L5G  C2021 05 15.29493014 53 09.12 -00 00 18.0    ~5FCb 12.85RUNEOCPI41
     ZTF0L5G  C2021 05 15.36241915 13 41.72 -02 08 18.3    ~5FCb 13.23gUNEOCPI41
     ZTF0L5G  C2021 05 15.36276615 13 48.07 -02 08 57.7    ~5FCb 13.23gUNEOCPI41
     ZTF0L67* C2021 05 18.19121514 21 16.17 +03 03 31.0    ~5IDJ 13.50gUNEOCPI41
     ZTF0L67  C2021 05 18.19156314 21 23.97 +03 02 49.2    ~5IDJ 13.50gUNEOCPI41
     ZTF0L67  C2021 05 18.21284714 29 16.07 +02 20 23.0    ~5IDJ 13.40gUNEOCPI41
     ZTF0L67  C2021 05 18.21319414 29 23.32 +02 19 43.0    ~5IDJ 13.40gUNEOCPI41
     ZTF0L6q* C2021 05 19.31630815 04 08.10 -01 08 21.6    ~5KDc 13.06RUNEOCPI41
     ZTF0L6q  C2021 05 19.31665515 04 14.43 -01 09 01.7    ~5KDc 13.06RUNEOCPI41
     ZTF0L6q  C2021 05 19.35329915 15 28.61 -02 20 35.9    ~5KDc 13.42gUNEOCPI41
     ZTF0L6q  C2021 05 19.35364615 15 35.00 -02 21 16.8    ~5KDc 13.42gUNEOCPI41
     T184158  C2021 05 19.40765 15 45 15.94 -03 05 45.5          12.4 o      T05
     T184158  C2021 05 19.41633 15 47 50.01 -03 23 50.6          12.5 o      T05
     T184158  C2021 05 19.42641 15 50 50.14 -03 45 02.2          12.4 o      T05
     T184158  C2021 05 19.42826 15 51 23.28 -03 48 56.5          12.5 o      T05
     T184158  C2021 05 19.43011 15 51 56.46 -03 52 51.0          12.6 o      T05
     T184158  C2021 05 19.44390 15 56 05.82 -04 22 12.9          12.3 o      T05
     ZTF0L78* C2021 05 20.27370414 51 50.92 +00 08 43.6    ~5KDc 12.92RUNEOCPI41
     ZTF0L78  C2021 05 20.27405114 51 57.57 +00 08 02.2    ~5KDc 12.92RUNEOCPI41
     ZTF0L78  C2021 05 20.27511614 52 18.34 +00 05 51.3    ~5KDc 12.76RUNEOCPI41
     ZTF0L78  C2021 05 20.27546314 52 25.06 +00 05 10.2    ~5KDc 12.76RUNEOCPI41
     ZTF0LAB* C2021 06 02.27290515 05 03.87 -01 14 54.3    ~62GM 13.65gUNEOCPI41
     ZTF0LAB  C2021 06 02.27325215 05 10.70 -01 15 39.5    ~62GM 13.65gUNEOCPI41
     ZTF0LAB  C2021 06 02.34022015 27 13.45 -03 41 35.7    ~62GM 12.92RUNEOCPI41
     ZTF0LAB  C2021 06 02.34056715 27 20.23 -03 42 20.4    ~62GM 12.92RUNEOCPI41
     ZTF0LBs  C2021 06 05.27663215 09 18.94 -01 43 53.9    ~65E3 12.93RUNEOCPI41
     ZTF0LBs  C2021 06 05.27697915 09 26.05 -01 44 41.2    ~65E3 12.93RUNEOCPI41
     ZTF0LBs  C2021 06 05.27803215 09 47.33 -01 46 59.5    ~65E3 13.30RUNEOCPI41
     ZTF0LBs  C2021 06 05.27838015 09 54.53 -01 47 47.4    ~65E3 13.30RUNEOCPI41
     ZTF0LBs  C2021 06 05.28270815 11 23.17 -01 57 39.0    ~65E3 13.12RUNEOCPI41
     ZTF0LBs  C2021 06 05.28305515 11 30.32 -01 58 26.4    ~65E3 13.12RUNEOCPI41
     ZTF0LBs  C2021 06 05.28412015 11 52.68 -02 01 01.7    ~65E3 13.43RUNEOCPI41
     ZTF0LBs  C2021 06 05.28446815 11 58.44 -02 01 40.0    ~65E3 13.43RUNEOCPI41
     ZTF0LBs  C2021 06 05.28692115 12 48.97 -02 07 09.8    ~65E3 13.14RUNEOCPI41
     ZTF0LBs  C2021 06 05.28726815 12 55.89 -02 07 56.5    ~65E3 13.14RUNEOCPI41
     ZTF0LBs  C2021 06 05.29300915 14 51.78 -02 20 47.3 FixDup   13.26RUNEOCPI41
     ZTF0LBs* C2021 06 05.29300915 14 51.78 -02 20 47.3 Duplicat!13.26RUNEOCPI41
     ZTF0LBs  C2021 06 05.29335715 14 58.82 -02 21 34.2    ~65E3 13.26RUNEOCPI41
     ZTF0LBs  C2021 06 05.29347215 15 01.26 -02 21 51.6    ~65E3 13.02RUNEOCPI41
     ZTF0LBs  C2021 06 05.29381915 15 08.27 -02 22 37.9    ~65E3 13.02RUNEOCPI41
     ZTF0LBs  C2021 06 05.30516215 18 56.27 -02 47 58.7    ~65E3 13.15RUNEOCPI41
     ZTF0LBs  C2021 06 05.30550915 19 03.10 -02 48 44.2    ~65E3 13.15RUNEOCPI41

Station data:
(I41) Palomar Mountain--ZTF  (N33.357340 W116.859780)  US/California.
   Observers B. T. Bolin, Z. T. F. Collaboration. Measurers B. T. Bolin,
   Z.-Y. Lin, F. J. Masci. 1.2-m f/2.4 Schmidt.
(T05) ATLAS-HKO, Haleakala  (N20.707582 W156.257008)  US/Hawaii.  Observers
   L. Denneau, A. Heinze, H. Weiland, J. Tonry, H. Flewelling, A.
   Fitzsimmons, D. Young, B. Stalder. Measurers L. Denneau, A. Heinze, J.
   Tonry. 0.5-m f/2.0 Schmidt + CCD.
(U55) Golden Ears Observatory, Maple Ridge  (N49.253280 W122.585440)
   Canada/BritColumbia.  Observer B. Kumar. 0.36-m f/7 Schmidt-Cassegrain +
   CCD.
(Z84) Calar Alto-Schmidt  (N37.223981 W2.548143)  Spain.  Observer E. Schwab.
   Measurers E. Schwab, D. Koschny, M. Micheli. 0.8-m f/3 Schmidt + CCD.

Orbital elements:  ZTF0L5G = ZTF0L67 = B04SK17
   Perigee 2021 May 17.865216 +/- 0.000287 TT = 20:45:54.6 (JD 2459352.365216)
A1: 7.19e-6 +/- 8.47e-8   A2: 1.36e-7 +/- 4.63e-8   A3: -1.45e-7 +/- 2.27e-8 AU/day^2 [1/r^2]
Epoch 2021 May 18.0 TT = JDT 2459352.5                        Gray
M  48.637561296 +/- 0.10            (J2000 equator)
n 360.854983401 +/- 0.00891         Peri.  358.205018 +/- 0.035
a 42174.34709 +/- 0.694             Node    52.614432 +/- 0.007
e   0.64541202 +/- 8.73e-5          Incl.   17.431543 +/- 0.00024
P1436.56m/0.998d           H 29.0   G  0.15   U  9.6
q 14954.51624 +/- 3.89    Q 69394.17795 +/- 2.79
43 of 52 observations 2021 May 15-June 5; mean residual 10".290
Residuals in arcseconds: 
210311 Z84(2666+  408+)   210519 I41 2.77+ .768-    210605 I41 7.45+ 4.39-
210311 Z84(2657+  406+)   210519 I41 4.52+ 1.78-    210605 I41 2.00+ 1.14+
210311 Z84(2647+  402+)   210519 I41 4.65+ 1.98-    210605 I41 2.79+ .741+
210311 Z84(2637+  401+)   210519 T05 1.43+ .326-    210605 I41 2.45+ 1.15-
210311 Z84(2627+  397+)   210519 T05 .139- .466+    210605 I41 3.33+ 1.35-
210311 Z84(2617+  396+)   210519 T05 2.71+ .717-    210605 I41 12.5+ 11.9-
210417 U55( 111- 42.4+)   210519 T05 2.45+ .713-    210605 I41 7.61- 2.91-
210417 U55( 112- 42.4+)   210519 T05 2.07+ .544-    210605 I41 .484+ .187+
210417 U55( 111- 42.0+)   210519 T05 3.81+ 1.29-    210605 I41 1.65- .528+
210515 I41 29.7- 9.11+    210520 I41 12.1+ 2.02-    210605 I41 11.1- 6.24+
210515 I41 29.6- 9.12+    210520 I41 11.7+ 2.18-    210605 I41 11.1- 6.24+
210515 I41 11.3- .531+    210520 I41 16.0+ 6.53-    210605 I41 11.2- 6.30+
210515 I41 10.7- .832+    210520 I41 16.8+ 6.40-    210605 I41 9.50- 4.42+
210518 I41 4.69- 4.63+    210602 I41 37.9+ 13.4-    210605 I41 9.68- 4.93+
210518 I41 6.81- 4.54+    210602 I41 34.5+ 12.2-    210605 I41 18.0- 8.05+
210518 I41 4.77+ 3.59-    210602 I41 15.8- 8.65+    210605 I41 20.1- 8.98+
210518 I41 1.53+ 2.40-    210602 I41 15.9- 8.64+
210519 I41 4.01+ 1.32-    210605 I41 7.86+ 4.51-

